Location: Black Swamp Observatory
(41.3920°N, 84.1250°W)
Time: 06:15:12
(UTC-05:00)

Tiros 1 despin weight - All Passes

Search period start: 19 January 2022 00:00
Search period end: 29 January 2022 00:00
Orbit: 592 x 641 km, 48.2° (Epoch: 18 January)

Date Brightness Start Highest point End Pass type
(mag) Time Alt. Az. Time Alt. Az. Time Alt. Az.
19 Jan - 00:30:32 10° WNW 00:35:11 58° NNE 00:39:48 10° E night (unlit)
19 Jan - 02:12:16 10° WNW 02:16:39 40° SW 02:20:59 10° SSE night (unlit)
19 Jan - 18:01:13 10° S 18:04:14 17° SE 18:07:17 10° E visible
19 Jan - 19:40:38 10° WSW 19:45:14 82° SSE 19:49:55 10° ENE visible
19 Jan - 21:22:43 10° W 21:27:06 40° NNW 21:31:32 10° ENE visible
19 Jan - 23:05:00 10° WNW 23:09:23 38° N 23:13:47 10° ENE night (unlit)
20 Jan - 00:46:38 10° WNW 00:51:20 86° NNE 00:56:02 10° ESE night (unlit)
20 Jan - 02:28:54 10° W 02:32:28 22° SW 02:36:01 10° S night (unlit)
20 Jan - 18:15:56 10° SSW 18:20:00 32° SE 18:24:08 10° ENE visible
20 Jan - 19:56:46 10° WSW 20:01:21 64° NNW 20:06:01 10° ENE visible
20 Jan - 21:39:10 10° WNW 21:43:28 35° N 21:47:47 10° ENE visible
20 Jan - 23:21:10 10° WNW 23:25:42 47° NNE 23:30:14 10° E night (unlit)
21 Jan - 01:02:46 10° WNW 01:07:22 57° SW 01:11:57 10° SE night (unlit)
21 Jan - 02:46:56 10° WSW 02:48:09 11° SW 02:49:23 10° SW night (unlit)
21 Jan - 16:53:45 10° SSE 16:55:08 11° SE 16:56:30 10° ESE daylight
21 Jan - 18:31:25 10° SW 18:35:54 59° SE 18:40:28 10° ENE visible
21 Jan - 20:13:08 10° W 20:17:36 46° NNW 20:22:06 10° ENE visible
21 Jan - 21:55:32 10° WNW 21:59:50 36° N 22:04:10 10° ENE visible
21 Jan - 23:37:15 10° WNW 23:41:56 67° NNE 23:46:36 10° ESE night (unlit)
22 Jan - 01:19:08 10° WNW 01:23:16 31° SW 01:27:23 10° SSE night (unlit)
22 Jan - 17:07:18 10° S 17:10:49 22° SE 17:14:22 10° E daylight
22 Jan - 18:47:22 10° WSW 18:51:57 83° NNW 18:56:37 10° ENE visible
22 Jan - 20:29:36 10° WNW 20:33:54 37° N 20:38:17 10° ENE visible
22 Jan - 22:11:46 10° WNW 22:16:11 41° NNE 22:20:38 10° E night (unlit)
22 Jan - 23:53:21 10° WNW 23:58:03 79° SSW 00:02:43 10° SE night (unlit)
23 Jan - 01:36:02 10° W 01:39:03 17° SW 01:42:03 10° S night (unlit)
23 Jan - 17:22:22 10° SSW 17:26:38 41° SE 17:30:58 10° ENE daylight
23 Jan - 19:03:36 10° W 19:08:06 55° NNW 19:12:41 10° ENE visible
23 Jan - 20:46:01 10° WNW 20:50:16 35° N 20:54:35 10° ENE visible
23 Jan - 22:27:53 10° WNW 22:32:28 53° NNE 22:37:04 10° E night (unlit)
24 Jan - 00:09:33 10° WNW 00:14:01 45° SW 00:18:28 10° SE night (unlit)
24 Jan - 15:59:08 10° SSE 16:01:40 15° SE 16:04:13 10° E daylight
24 Jan - 17:38:03 10° SW 17:42:34 73° SSE 17:47:12 10° ENE daylight
24 Jan - 19:20:01 10° W 19:24:23 41° NNW 19:28:48 10° ENE visible
24 Jan - 21:02:19 10° WNW 21:06:39 37° N 21:11:00 10° ENE visible
24 Jan - 22:43:58 10° WNW 22:48:38 79° NNE 22:53:21 10° ESE night (unlit)
25 Jan - 00:26:03 10° W 00:29:52 25° SW 00:33:39 10° S night (unlit)
25 Jan - 16:13:33 10° SSW 16:17:24 28° SE 16:21:18 10° E daylight
25 Jan - 17:54:08 10° WSW 17:58:40 70° NNW 18:03:18 10° ENE daylight
25 Jan - 19:36:28 10° WNW 19:40:42 36° N 19:45:02 10° ENE visible
25 Jan - 21:18:30 10° WNW 21:22:58 44° NNE 21:27:27 10° E visible
25 Jan - 23:00:04 10° WNW 23:04:42 64° SSW 23:09:20 10° SE night (unlit)
26 Jan - 00:43:27 10° WSW 00:45:34 13° SW 00:47:41 10° SSW night (unlit)
26 Jan - 16:28:53 10° SW 16:33:15 51° SE 16:37:43 10° ENE daylight
26 Jan - 18:10:27 10° W 18:14:52 48° NNW 18:19:22 10° ENE visible
26 Jan - 19:52:50 10° WNW 19:57:05 35° N 20:01:23 10° ENE visible
26 Jan - 21:34:35 10° WNW 21:39:12 61° NNE 21:43:50 10° ESE visible
26 Jan - 23:16:21 10° WNW 23:20:37 36° SW 23:24:53 10° SSE night (unlit)
27 Jan - 15:05:03 10° S 15:08:13 19° SE 15:11:25 10° E daylight
27 Jan - 16:44:44 10° WSW 16:49:15 89° SSE 16:53:52 10° ENE daylight
27 Jan - 18:26:52 10° W 18:31:09 38° N 18:35:31 10° ENE visible
27 Jan - 20:09:05 10° WNW 20:13:26 39° N 20:17:49 10° E visible
27 Jan - 21:50:39 10° WNW 21:55:20 87° SSW 22:00:01 10° ESE visible
27 Jan - 23:33:04 10° W 23:36:24 20° SW 23:39:45 10° S night (unlit)
28 Jan - 15:19:54 10° SSW 15:24:00 35° SE 15:28:09 10° ENE daylight
28 Jan - 17:00:55 10° WSW 17:05:23 60° NNW 17:09:57 10° ENE daylight
28 Jan - 18:43:18 10° WNW 18:47:30 35° N 18:51:46 10° ENE visible
28 Jan - 20:25:12 10° WNW 20:29:43 49° NNE 20:34:15 10° E visible
28 Jan - 22:06:48 10° WNW 22:11:19 51° SW 22:15:51 10° SE visible
